Weather History for Mount Ida, AR

Change the Weather History Date:

Saturday, June 7, 2014

  Actual Average (KHOT) Record (KHOT)
Temperature  
Mean Temperature 78 °F -  
Max Temperature 89 °F 85 °F 100 °F (1977)
Min Temperature 68 °F 62 °F 51 °F (1998)
Cooling Degree Days 14    
Growing Degree Days 28 (Base 50)    
Moisture  
Dew Point 69 °F    
Average Humidity 79    
Maximum Humidity 97    
Minimum Humidity 51    
Precipitation  
Precipitation 0.01 in - - ()
Sea Level Pressure  
Sea Level Pressure 29.88 in    
Wind  
Wind Speed 2 mph (WSW)    
Max Wind Speed 10 mph    
Max Gust Speed 18 mph    
Visibility 10 miles    
Events      
Averages and records for this station are not official NWS values.
T = Trace of Precipitation, MM = Missing Value Source: NWS Daily Summary

Daily Weather History Graph

Daily Weather History Graph

Search for Another Location

Airport:

Trip Planner

Search our weather history database for the weather conditions in past years. The results will help you decide how hot, cold, wet, or windy it might be!

Date:

Astronomy

Jun. 07, 2014 Rise Set
Actual Time 6:01 AM CDT 8:25 PM CDT
Civil Twilight 5:32 AM CDT 8:54 PM CDT
Nautical Twilight 4:56 AM CDT 9:30 PM CDT
Astronomical Twilight 4:16 AM CDT 10:09 PM CDT
Moon 2:56 PM CDT (6/7) 2:09 AM CDT (6/7)
Length of Visible Light 15h 22m
Length of Day
14h 23m
Waxing Gibbous, 68% of the Moon is Illuminated
Jun 7
Waxing Gibbous
Jun 12
Full
Jun 19
Last Quarter
Jun 27
New
Jul 5
First Quarter

Hourly Weather History & Observations

Time (CDT) Temp. Heat Index Dew Point Humidity Pressure Visibility Wind Dir Wind Speed Gust Speed Precip Events Conditions
12:53 AM 69.1 °F - 68.0 °F 96% 29.91 in 10.0 mi Calm Calm - N/A   Clear
1:53 AM 70.0 °F - 68.0 °F 93% 29.92 in 10.0 mi Calm Calm - N/A   Overcast
2:35 AM 70.0 °F - 69.1 °F 97% 29.96 in 10.0 mi Calm Calm - N/A   Overcast
2:53 AM 70.0 °F - 69.1 °F 97% 29.94 in 10.0 mi Calm Calm - N/A   Mostly Cloudy
3:53 AM 69.1 °F - 68.0 °F 96% 29.91 in 9.0 mi Calm Calm - N/A   Partly Cloudy
4:53 AM 68.0 °F - 66.9 °F 96% 29.91 in 7.0 mi Calm Calm - N/A   Partly Cloudy
5:53 AM 69.1 °F - 66.9 °F 93% 29.89 in 6.0 mi Calm Calm - N/A   Partly Cloudy
7:53 AM 75.0 °F - 71.1 °F 87% 29.88 in 10.0 mi North 4.6 mph - N/A   Clear
8:53 AM 77.0 °F - 71.1 °F 82% 29.91 in 10.0 mi Calm Calm - N/A   Clear
9:53 AM 81.0 °F 84.4 °F 70.0 °F 69% 29.90 in 10.0 mi WSW 8.1 mph - N/A   Clear
10:53 AM 82.9 °F 86.5 °F 69.1 °F 63% 29.89 in 10.0 mi Variable 4.6 mph - N/A   Clear
11:53 AM 84.9 °F 88.8 °F 69.1 °F 59% 29.89 in 10.0 mi West 8.1 mph - N/A   Clear
12:53 PM 87.1 °F 91.3 °F 69.1 °F 55% 29.88 in 10.0 mi Variable 6.9 mph - N/A   Clear
1:53 PM 87.1 °F 90.6 °F 68.0 °F 53% 29.86 in 10.0 mi Variable 4.6 mph - N/A   Clear
2:53 PM 88.0 °F 91.4 °F 68.0 °F 51% 29.84 in 10.0 mi SW 10.4 mph 18.4 mph N/A   Partly Cloudy
3:53 PM 88.0 °F 92.1 °F 69.1 °F 53% 29.83 in 10.0 mi Variable 4.6 mph - N/A   Partly Cloudy
4:53 PM 89.1 °F 94.1 °F 70.0 °F 53% 29.84 in 10.0 mi Variable 3.5 mph - N/A   Partly Cloudy
5:53 PM 78.1 °F - 66.9 °F 68% 29.88 in 10.0 mi Variable 4.6 mph - N/A   Overcast
6:53 PM 78.1 °F - 70.0 °F 76% 29.85 in 10.0 mi Calm Calm - 0.01 in   Partly Cloudy
7:53 PM 75.0 °F - 71.1 °F 87% 29.84 in 10.0 mi SSE 3.5 mph - N/A   Clear
8:53 PM 73.0 °F - 71.1 °F 93% 29.86 in 10.0 mi Calm Calm - N/A   Clear
9:53 PM 73.0 °F - 71.1 °F 93% 29.88 in 10.0 mi Calm Calm - N/A   Overcast
10:53 PM 72.0 °F - 70.0 °F 93% 29.88 in 10.0 mi Calm Calm - N/A   Scattered Clouds
11:53 PM 72.0 °F - 70.0 °F 93% 29.87 in 10.0 mi Calm Calm - N/A   Partly Cloudy